N5AJY Weather Reports


time (UTC)temp
C
wind
direction
speed
KPH
gust
KPH
rain 1hr
cm
rain 24hr
cm
rain mn
cm
humidity
%
barometer
mb
20260507132152 13 0 0.0 0.0 0.00 0.00 0.00 68 1015.8
20260507130654 12 0 0.0 0.0 0.00 0.00 0.00 75 1015.7
20260507130159 11 0 0.0 0.0 0.00 0.00 0.00 76 1015.7
20260507125659 10 0 0.0 0.0 0.00 0.00 0.00 81 1015.6
20260507125153 10 0 0.0 0.0 0.00 0.00 0.00 83 1015.5
20260507124654 9 0 0.0 0.0 0.00 0.00 0.00 86 1015.5
20260507124153 8 0 0.0 0.0 0.00 0.00 0.00 91 1015.5
20260507123654 8 0 0.0 0.0 0.00 0.00 0.00 92 1015.4
20260507123153 7 0 0.0 0.0 0.00 0.00 0.00 94 1015.5
20260507122653 7 0 0.0 0.0 0.00 0.00 0.00 94 1015.4
20260507122154 6 0 0.0 0.0 0.00 0.00 0.00 93 1015.3
20260507121156 6 0 0.0 0.0 0.00 0.00 0.00 93 1015.3
20260507120713 5 0 0.0 0.0 0.00 0.00 0.00 91 1015.3
20260507120240 5 0 0.0 0.0 0.00 0.00 0.00 91 1015.3
20260507115248 5 0 0.0 0.0 0.00 0.00 0.00 91 1015.3
20260507114216 5 0 0.0 0.0 0.00 0.00 0.00 91 1015.2
20260507112732 5 0 0.0 0.0 0.00 0.00 0.00 91 1015.0
20260507111655 5 0 0.0 0.0 0.00 0.00 0.00 91 1015.0
20260507111153 5 0 0.0 0.0 0.00 0.00 0.00 91 1015.1
20260507110723 5 0 0.0 0.0 0.00 0.00 0.00 91 1014.9
20260507110308 5 0 0.0 0.0 0.00 0.00 0.00 91 1014.8
20260507105710 5 0 0.0 0.0 0.00 0.00 0.00 91 1014.7
20260507105316 5 0 0.0 0.0 0.00 0.00 0.00 91 1014.6
20260507104654 5 0 0.0 0.0 0.00 0.00 0.00 91 1014.6
20260507104205 5 0 0.0 0.0 0.00 0.00 0.00 91 1014.7
20260507103751 5 0 0.0 0.0 0.00 0.00 0.00 91 1014.7
20260507102707 5 0 0.0 0.0 0.00 0.00 0.00 90 1014.9
20260507102218 5 0 0.0 0.0 0.00 0.00 0.00 89 1014.8
20260507101719 5 0 0.0 0.0 0.00 0.00 0.00 89 1014.8
20260507101154 5 0 0.0 0.0 0.00 0.00 0.00 89 1014.7
20260507100653 5 0 0.0 0.0 0.00 0.00 0.00 89 1014.6
20260507100219 5 0 0.0 0.0 0.00 0.00 0.00 89 1014.7
20260507095155 5 0 0.0 0.0 0.00 0.00 0.00 88 1014.6
20260507094653 5 0 0.0 0.0 0.00 0.00 0.00 87 1014.4
20260507094154 6 0 0.0 0.0 0.00 0.00 0.00 87 1014.4
20260507093656 6 0 0.0 0.0 0.00 0.00 0.00 87 1014.5
20260507093152 6 0 0.0 0.0 0.00 0.00 0.00 86 1014.7
20260507092656 6 0 0.0 0.0 0.00 0.00 0.00 86 1014.7
20260507092155 6 0 0.0 0.0 0.00 0.00 0.00 86 1014.8
20260507091657 6 0 0.0 0.0 0.00 0.00 0.00 85 1014.5
20260507091153 6 0 0.0 0.0 0.00 0.00 0.00 85 1014.6
20260507090654 6 0 0.0 0.0 0.00 0.00 0.00 85 1014.8
20260507090154 6 0 0.0 0.0 0.00 0.00 0.00 85 1014.9
20260507085654 6 0 0.0 0.0 0.00 0.00 0.00 85 1014.8
20260507085155 6 0 0.0 0.0 0.00 0.00 0.00 85 1014.9
20260507084656 6 0 0.0 0.0 0.00 0.00 0.00 85 1015.1
20260507084153 6 0 0.0 0.0 0.00 0.00 0.00 84 1015.1
20260507083654 6 0 0.0 0.0 0.00 0.00 0.00 84 1014.9
20260507083153 6 0 0.0 0.0 0.00 0.00 0.00 84 1014.9
20260507082154 6 0 0.0 0.0 0.00 0.00 0.00 83 1014.8
20260507081653 6 0 0.0 0.0 0.00 0.00 0.00 83 1014.8
20260507081158 7 0 0.0 0.0 0.00 0.00 0.00 83 1014.7
20260507080654 7 0 0.0 0.0 0.00 0.00 0.00 82 1014.8
20260507080154 7 0 0.0 0.0 0.00 0.00 0.00 82 1015.1
20260507075653 7 0 0.0 0.0 0.00 0.00 0.00 81 1014.9
20260507075154 7 0 0.0 0.0 0.00 0.00 0.00 81 1014.7
20260507074653 7 0 0.0 0.0 0.00 0.00 0.00 80 1014.8
20260507074158 7 0 0.0 0.0 0.00 0.00 0.00 79 1014.7
20260507073653 7 0 0.0 0.0 0.00 0.00 0.00 79 1014.8
20260507073152 7 0 0.0 0.0 0.00 0.00 0.00 79 1014.8
20260507072655 7 0 0.0 0.0 0.00 0.00 0.00 79 1014.8
20260507072153 8 0 0.0 0.0 0.00 0.00 0.00 79 1015.1
20260507071654 8 0 0.0 0.0 0.00 0.00 0.00 78 1015.1
20260507071153 8 0 0.0 0.0 0.00 0.00 0.00 78 1014.8
20260507070654 8 0 0.0 0.0 0.00 0.00 0.00 77 1015.0
20260507070153 8 0 0.0 0.0 0.00 0.00 0.00 77 1015.2
20260507065654 8 0 0.0 0.0 0.00 0.00 0.00 77 1015.2
20260507065153 8 0 0.0 0.0 0.00 0.00 0.00 77 1015.2
20260507064653 8 0 0.0 0.0 0.00 0.00 0.00 76 1015.3
20260507064153 8 0 0.0 0.0 0.00 0.00 0.00 76 1015.2
20260507063653 8 0 0.0 0.0 0.00 0.00 0.00 76 1015.1
20260507063154 8 0 0.0 0.0 0.00 0.00 0.00 76 1015.1
20260507062656 8 0 0.0 0.0 0.00 0.00 0.00 76 1015.1
20260507062153 8 0 0.0 0.0 0.00 0.00 0.00 76 1015.0
20260507061654 8 0 0.0 0.0 0.00 0.00 0.00 75 1014.8
20260507061153 8 0 0.0 0.0 0.00 0.00 0.00 75 1014.7
20260507060653 8 0 0.0 0.0 0.00 0.00 0.00 75 1014.8
20260507060154 9 0 0.0 0.0 0.00 0.00 0.00 74 1014.9
20260507055653 9 0 0.0 0.0 0.00 0.00 0.00 74 1014.9
20260507055154 9 0 0.0 0.0 0.00 0.00 0.00 74 1015.0
20260507054653 9 0 0.0 0.0 0.00 0.00 0.00 74 1015.0
20260507054154 9 0 0.0 0.0 0.00 0.00 0.00 74 1014.8
20260507053653 9 0 0.0 0.0 0.00 0.00 0.00 74 1014.8
20260507053154 9 0 0.0 0.0 0.00 0.00 0.00 73 1014.8
20260507052656 9 0 0.0 0.0 0.00 0.00 0.00 73 1014.7
20260507052153 10 0 0.0 0.0 0.00 0.00 0.00 72 1014.5
20260507051654 10 0 0.0 0.0 0.00 0.00 0.00 72 1014.7
20260507051152 10 0 0.0 0.0 0.00 0.00 0.00 72 1014.6
20260507050653 10 0 0.0 0.0 0.00 0.00 0.00 72 1014.5
20260507050153 10 0 0.0 0.0 0.00 0.00 0.00 71 1014.5
20260507045659 10 0 0.0 0.0 0.00 0.00 0.00 71 1014.6
20260507045152 10 0 0.0 0.0 0.00 0.00 0.00 71 1014.7
20260507044654 10 0 0.0 0.0 0.00 0.00 0.00 71 1014.6
20260507044153 10 0 0.0 0.0 0.00 0.00 0.00 71 1014.5
20260507043654 10 0 0.0 0.0 0.00 0.00 0.00 71 1014.6
20260507042700 10 0 0.0 0.0 0.00 0.00 0.00 71 1014.6
20260507042153 10 0 0.0 0.0 0.00 0.00 0.00 71 1014.5
20260507041653 10 0 0.0 0.0 0.00 0.00 0.00 71 1014.6
20260507041153 10 0 0.0 0.0 0.00 0.00 0.00 72 1014.7
20260507040654 10 0 0.0 0.0 0.00 0.00 0.00 72 1014.7
20260507040154 10 0 0.0 0.0 0.00 0.00 0.00 72 1014.6
20260507035654 10 0 0.0 0.0 0.00 0.00 0.00 72 1014.6
20260507035154 10 0 0.0 0.0 0.00 0.00 0.00 72 1014.5
20260507034654 10 0 0.0 0.0 0.00 0.00 0.00 72 1014.5
20260507034154 10 0 0.0 0.0 0.00 0.00 0.00 72 1014.5
20260507033653 10 0 0.0 0.0 0.00 0.00 0.00 72 1014.4
20260507033154 10 0 0.0 0.0 0.00 0.00 0.00 72 1014.3
20260507032653 10 0 0.0 0.0 0.00 0.00 0.00 71 1014.3
20260507032152 10 0 0.0 0.0 0.00 0.00 0.00 71 1014.3
20260507031654 11 0 0.0 0.0 0.00 0.00 0.00 70 1014.2
20260507030654 11 0 0.0 0.0 0.00 0.00 0.00 69 1014.2
20260507030153 11 0 0.0 0.0 0.00 0.00 0.00 69 1014.2
20260507025655 11 0 0.0 0.0 0.00 0.00 0.00 68 1014.1
20260507025154 11 0 0.0 0.0 0.00 0.00 0.00 68 1014.0
20260507024654 11 0 0.0 0.0 0.00 0.00 0.00 67 1014.0
20260507024153 11 0 0.0 0.0 0.00 0.00 0.00 66 1014.0
20260507023659 11 0 0.0 0.0 0.00 0.00 0.00 66 1013.9
20260507023153 11 0 0.0 0.0 0.00 0.00 0.00 66 1013.9
20260507022653 12 0 0.0 0.0 0.00 0.00 0.00 66 1013.8
20260507022153 12 0 0.0 0.0 0.00 0.00 0.00 66 1013.8
20260507021652 12 0 0.0 0.0 0.00 0.00 0.00 66 1013.8
20260507021153 12 0 0.0 0.0 0.00 0.00 0.00 66 1013.7
20260507020652 12 0 0.0 0.0 0.00 0.00 0.00 65 1013.6
20260507020155 12 0 0.0 0.0 0.00 0.00 0.00 64 1013.5
20260507015653 12 0 0.0 0.0 0.00 0.00 0.00 63 1013.4
20260507015154 12 0 0.0 0.0 0.00 0.00 0.00 63 1013.4
20260507014654 13 0 0.0 0.0 0.00 0.00 0.00 62 1013.4
20260507014154 13 0 0.0 0.0 0.00 0.00 0.00 61 1013.3
20260507013653 13 0 0.0 0.0 0.00 0.00 0.00 60 1013.1
20260507013152 13 0 0.0 0.0 0.00 0.00 0.00 60 1013.1
20260507012654 13 0 0.0 0.0 0.00 0.00 0.00 59 1013.0
20260507012153 13 0 0.0 0.0 0.00 0.00 0.00 58 1013.0
20260507011654 14 0 0.0 0.0 0.00 0.00 0.00 56 1013.0
20260507011153 14 0 0.0 0.0 0.00 0.00 0.00 56 1012.9
20260507010655 15 0 0.0 0.0 0.00 0.00 0.00 55 1012.9
20260507010154 15 0 0.0 0.0 0.00 0.00 0.00 54 1012.9
20260507005654 15 0 0.0 0.0 0.00 0.00 0.00 53 1012.8
20260507004653 15 0 0.0 0.0 0.00 0.00 0.00 50 1012.7
20260507004154 15 0 0.0 0.0 0.00 0.00 0.00 50 1012.7
20260507003653 15 0 0.0 0.0 0.00 0.00 0.00 49 1012.6
20260507003154 15 0 0.0 0.0 0.00 0.00 0.00 48 1012.6
20260507002653 16 0 0.0 0.0 0.00 0.00 0.00 50 1012.6
20260507002154 16 0 0.0 0.0 0.00 0.00 0.00 50 1012.5
20260507001653 16 0 0.0 0.0 0.00 0.00 0.00 50 1012.5
20260507001154 16 0 0.0 0.0 0.00 0.00 0.00 49 1012.5
20260507000653 16 0 0.0 0.0 0.00 0.00 0.00 49 1012.4
20260507000154 16 0 0.0 0.0 0.00 0.00 0.00 48 1012.4
20260506235653 16 0 0.0 0.0 0.00 0.00 0.00 49 1012.4
20260506235153 16 0 0.0 0.0 0.00 0.00 0.00 48 1012.4
20260506234654 16 0 0.0 0.0 0.00 0.00 0.00 47 1012.4
20260506234153 16 0 0.0 0.0 0.00 0.00 0.00 46 1012.4
20260506233734 16 0 0.0 0.0 0.00 0.00 0.00 47 1012.4
20260506233654 16 0 0.0 0.0 0.00 0.00 0.00 47 1012.4
20260506233154 16 0 0.0 0.0 0.00 0.00 0.00 46 1012.4
20260506232654 16 0 0.0 0.0 0.00 0.00 0.00 47 1012.2
20260506232153 16 0 0.0 0.0 0.00 0.00 0.00 48 1012.2
20260506231654 16 0 0.0 0.0 0.00 0.00 0.00 49 1012.1
20260506231153 16 0 0.0 0.0 0.00 0.00 0.00 49 1012.1
20260506230654 16 58 0.0 1.6 0.00 0.00 0.00 50 1012.1
20260506230153 16 58 0.0 1.6 0.00 0.00 0.00 49 1012.0
20260506225654 17 0 0.0 0.0 0.00 0.00 0.00 50 1012.0
20260506225153 16 32 0.0 1.6 0.00 0.00 0.00 49 1011.9
20260506224654 16 32 0.0 1.6 0.00 0.00 0.00 51 1011.9
20260506223652 16 0 0.0 0.0 0.00 0.00 0.00 51 1011.8
20260506223153 17 0 0.0 0.0 0.00 0.00 0.00 50 1011.8
20260506222653 17 0 0.0 0.0 0.00 0.00 0.00 50 1011.6
20260506222154 17 31 0.0 1.6 0.00 0.00 0.00 51 1011.7
20260506221653 16 31 0.0 1.6 0.00 0.00 0.00 51 1011.6
20260506221154 17 0 0.0 0.0 0.00 0.00 0.00 49 1011.6
20260506220653 17 0 0.0 0.0 0.00 0.00 0.00 51 1011.5
20260506220154 17 0 0.0 0.0 0.00 0.00 0.00 51 1011.5
20260506215653 17 0 0.0 0.0 0.00 0.00 0.00 52 1011.4
20260506215154 17 0 0.0 0.0 0.00 0.00 0.00 51 1011.4
20260506214653 17 0 0.0 0.0 0.00 0.00 0.00 51 1011.5
20260506214152 16 8 0.0 1.6 0.00 0.00 0.00 50 1011.4
20260506213653 17 8 0.0 1.6 0.00 0.00 0.00 49 1011.5
20260506213154 17 0 0.0 0.0 0.00 0.00 0.00 53 1011.5
20260506212654 16 29 0.0 3.2 0.00 0.00 0.00 52 1011.6
20260506212152 16 22 0.0 3.2 0.00 0.00 0.00 53 1011.6
20260506211653 16 14 0.0 1.6 0.00 0.00 0.00 51 1011.6
20260506211154 16 0 0.0 0.0 0.00 0.00 0.00 50 1011.6
20260506210652 16 0 0.0 0.0 0.00 0.00 0.00 51 1011.8
20260506210154 16 0 0.0 0.0 0.00 0.00 0.00 52 1011.9
20260506205653 16 16 0.0 3.2 0.00 0.00 0.00 53 1012.0
20260506205154 16 31 0.0 3.2 0.00 0.00 0.00 53 1012.0
20260506204653 16 47 0.0 1.6 0.00 0.00 0.00 52 1012.1
20260506204154 16 54 0.0 1.6 0.00 0.00 0.00 53 1012.1
20260506203654 16 53 0.0 4.8 0.00 0.00 0.00 53 1012.3
20260506203154 16 53 0.0 4.8 0.00 0.00 0.00 51 1012.3
20260506202654 16 0 0.0 0.0 0.00 0.00 0.00 53 1012.3
20260506202155 16 6 0.0 6.4 0.00 0.00 0.00 55 1012.3
20260506201653 16 6 0.0 6.4 0.00 0.00 0.00 54 1012.3
20260506201154 16 43 0.0 1.6 0.00 0.00 0.00 55 1012.4
20260506200653 16 43 0.0 1.6 0.00 0.00 0.00 54 1012.4
20260506200154 16 92 0.0 1.6 0.00 0.00 0.00 53 1012.4
20260506195154 16 0 0.0 0.0 0.00 0.00 0.00 54 1012.3
20260506194654 16 0 0.0 0.0 0.00 0.00 0.00 56 1012.5
20260506194154 16 0 0.0 0.0 0.00 0.00 0.00 54 1012.4
20260506193653 16 0 0.0 0.0 0.00 0.00 0.00 55 1012.4
20260506193152 16 0 0.0 0.0 0.00 0.00 0.00 56 1012.5
20260506192654 16 0 0.0 0.0 0.00 0.00 0.00 55 1012.5
20260506192152 16 0 0.0 0.0 0.00 0.00 0.00 56 1012.7
20260506191655 16 0 0.0 0.0 0.00 0.00 0.00 56 1012.9
20260506191154 16 0 0.0 0.0 0.00 0.00 0.00 58 1013.0
20260506190653 16 39 0.0 1.6 0.00 0.00 0.00 58 1013.0
20260506190155 15 42 0.0 1.6 0.00 0.00 0.00 55 1013.1
20260506185653 16 46 0.0 1.6 0.00 0.00 0.00 56 1013.0
20260506185153 15 0 0.0 0.0 0.00 0.00 0.00 56 1012.9
20260506184653 16 0 0.0 0.0 0.00 0.00 0.00 56 1013.2
20260506184153 16 0 0.0 0.0 0.00 0.00 0.00 56 1013.2
20260506183654 16 0 0.0 0.0 0.00 0.00 0.00 53 1013.2
20260506183154 16 0 0.0 0.0 0.00 0.00 0.00 54 1013.3
20260506182654 16 77 0.0 1.6 0.00 0.00 0.00 56 1013.3
20260506182153 16 78 0.0 1.6 0.00 0.00 0.00 55 1013.4
20260506181654 16 51 0.0 4.8 0.00 0.00 0.00 56 1013.4
20260506181153 15 30 0.0 4.8 0.00 0.00 0.00 58 1013.5
20260506180654 16 328 0.0 1.6 0.00 0.00 0.00 58 1013.3
20260506180154 15 14 0.0 3.2 0.00 0.00 0.00 59 1013.6
20260506175653 15 25 0.0 3.2 0.00 0.00 0.00 57 1013.6
20260506175154 15 58 0.0 1.6 0.00 0.00 0.00 57 1013.7
20260506174655 15 58 0.0 1.6 0.00 0.00 0.00 58 1013.8
20260506174152 15 58 0.0 1.6 0.00 0.00 0.00 59 1013.9
20260506173654 15 58 0.0 1.6 0.00 0.00 0.00 56 1014.1
20260506173153 15 58 0.0 1.6 0.00 0.00 0.00 56 1014.1
20260506172654 15 17 0.0 3.2 0.00 0.00 0.00 55 1014.3
20260506172153 15 27 0.0 3.2 0.00 0.00 0.00 58 1014.4
20260506171656 15 79 0.0 1.6 0.00 0.00 0.00 58 1014.7
20260506171153 15 95 0.0 1.6 0.00 0.00 0.00 58 1014.6
20260506170654 15 95 0.0 1.6 0.00 0.00 0.00 58 1014.8
20260506170153 15 0 0.0 0.0 0.00 0.00 0.00 58 1014.8
20260506165652 14 0 0.0 0.0 0.00 0.00 0.00 60 1014.8
20260506165153 14 0 0.0 0.0 0.00 0.00 0.00 63 1014.7
20260506164652 13 0 0.0 0.0 0.00 0.00 0.00 60 1014.6
20260506164153 13 0 0.0 0.0 0.00 0.00 0.00 61 1014.6
20260506163653 13 0 0.0 0.0 0.00 0.00 0.00 61 1014.5
20260506163154 13 0 0.0 0.0 0.00 0.00 0.00 61 1014.5
20260506162653 13 0 0.0 0.0 0.00 0.00 0.00 60 1014.6
20260506162154 13 0 0.0 0.0 0.00 0.00 0.00 62 1014.6
20260506161653 12 0 0.0 0.0 0.00 0.00 0.00 63 1014.4
20260506161154 12 0 0.0 0.0 0.00 0.00 0.00 63 1014.5
20260506160653 12 0 0.0 0.0 0.00 0.00 0.00 62 1014.3
20260506160152 12 0 0.0 0.0 0.00 0.00 0.00 63 1014.3
20260506155653 12 61 0.0 1.6 0.00 0.00 0.00 62 1014.2
20260506155153 13 61 0.0 1.6 0.00 0.00 0.00 61 1014.0
20260506154654 13 0 0.0 0.0 0.00 0.00 0.00 62 1013.9
20260506154153 13 0 0.0 0.0 0.00 0.00 0.00 64 1013.6
20260506153654 12 0 0.0 0.0 0.00 0.00 0.00 65 1013.3
20260506153153 12 85 0.0 4.8 0.00 0.00 0.00 63 1013.1
20260506152153 12 77 0.0 3.2 0.00 0.00 0.00 65 1012.9
20260506151654 12 66 0.0 1.6 0.00 0.00 0.00 65 1012.9
20260506151153 12 66 0.0 1.6 0.00 0.00 0.00 64 1012.8
20260506150654 12 86 0.0 3.2 0.00 0.00 0.00 67 1013.0
20260506150153 12 83 0.0 3.2 0.00 0.00 0.00 70 1013.0
20260506145654 11 81 0.0 3.2 0.00 0.00 0.00 68 1013.2
20260506145154 11 76 0.0 1.6 0.00 0.00 0.00 68 1013.3
20260506144652 11 74 0.0 8.0 0.00 0.00 0.00 69 1013.2
20260506144153 11 83 0.0 8.0 0.00 0.00 0.00 70 1013.1
20260506143652 11 80 0.0 4.8 0.00 0.00 0.00 69 1012.9
20260506143154 11 60 0.0 3.2 0.00 0.00 0.00 69 1012.9
20260506142653 11 73 0.0 1.6 0.00 0.00 0.00 71 1013.1
20260506142154 11 70 0.0 6.4 0.00 0.00 0.00 71 1012.9
20260506141653 10 71 0.0 6.4 0.00 0.00 0.00 72 1012.9
20260506141154 10 80 0.0 1.6 0.00 0.00 0.00 72 1013.0
20260506140653 10 0 0.0 0.0 0.00 0.00 0.00 73 1013.0
20260506140158 10 81 0.0 4.8 0.00 0.00 0.00 74 1013.0
20260506135653 10 73 0.0 4.8 0.00 0.00 0.00 75 1013.1
20260506135153 10 31 0.0 1.6 0.00 0.00 0.00 76 1013.3
20260506134653 10 45 0.0 1.6 0.00 0.00 0.00 77 1013.2
20260506134152 10 67 0.0 3.2 0.00 0.00 0.00 77 1013.1
20260506133654 10 50 0.0 3.2 0.00 0.00 0.00 78 1013.1
20260506133153 9 46 0.0 3.2 0.00 0.00 0.00 78 1013.2